GEFSSGP_prec_meanprecacc_186.txt.gz
Total_Precipitation_Accumulation
0.05 0.12 0.23 0.48 1.16 1.27 0.93 0.60 0.50 0.40 0.39 0.35 0.37 0.35 0.41 0.59 0.88 1.26 0.65 0.30 0.21 0.20 0.24 0.38 0.56 0.54 0.50 0.49 0.51 0.53 0.51 0.48 0.46 0.49 0.54 0.53 0.53 0.47 0.43 0.46 0.49 0.55 0.56 0.52 0.60 0.64 0.61 0.68 0.77
0.09 0.15 0.27 0.60 1.08 0.94 0.71 0.55 0.46 0.32 0.33 0.37 0.49 0.50 0.41 0.49 0.49 0.46 0.41 0.33 0.18 0.16 0.18 0.20 0.38 0.46 0.44 0.43 0.43 0.47 0.44 0.38 0.38 0.41 0.46 0.46 0.50 0.48 0.44 0.46 0.49 0.53 0.51 0.53 0.63 0.63 0.66 0.66 0.69
0.11 0.16 0.28 0.66 0.75 0.52 0.44 0.35 0.30 0.31 0.39 0.48 0.55 0.58 0.59 0.57 0.45 0.44 0.39 0.27 0.23 0.20 0.18 0.23 0.32 0.33 0.37 0.38 0.39 0.42 0.43 0.39 0.36 0.36 0.42 0.44 0.48 0.48 0.46 0.50 0.52 0.55 0.56 0.55 0.58 0.64 0.72 0.71 0.68
0.10 0.18 0.34 0.49 0.41 0.23 0.19 0.20 0.26 0.37 0.56 0.77 0.79 0.76 0.70 0.50 0.38 0.35 0.37 0.31 0.28 0.21 0.17 0.24 0.30 0.28 0.30 0.32 0.34 0.38 0.39 0.38 0.38 0.39 0.42 0.46 0.51 0.54 0.50 0.46 0.51 0.58 0.62 0.63 0.65 0.70 0.74 0.70 0.67
0.09 0.23 0.43 0.42 0.25 0.19 0.17 0.19 0.30 0.43 0.60 0.79 0.84 0.90 0.91 0.64 0.41 0.37 0.37 0.41 0.34 0.25 0.18 0.23 0.36 0.33 0.31 0.34 0.37 0.39 0.39 0.40 0.39 0.41 0.43 0.50 0.55 0.54 0.51 0.50 0.54 0.59 0.64 0.66 0.70 0.69 0.71 0.73 0.75
0.07 0.22 0.33 0.30 0.18 0.15 0.19 0.23 0.31 0.43 0.60 0.78 1.05 1.14 1.09 0.84 0.69 0.58 0.48 0.60 0.48 0.33 0.24 0.27 0.41 0.43 0.38 0.39 0.41 0.42 0.38 0.40 0.41 0.43 0.46 0.51 0.54 0.57 0.59 0.61 0.63 0.59 0.65 0.68 0.67 0.66 0.63 0.66 0.79
0.04 0.12 0.20 0.21 0.16 0.15 0.18 0.23 0.31 0.48 0.62 0.87 1.15 1.29 1.17 1.01 0.84 0.74 0.69 0.75 0.77 0.60 0.49 0.41 0.42 0.43 0.44 0.49 0.51 0.46 0.42 0.44 0.44 0.49 0.50 0.51 0.52 0.55 0.58 0.69 0.73 0.66 0.68 0.69 0.71 0.68 0.69 0.71 0.83
0.03 0.06 0.12 0.13 0.11 0.12 0.17 0.21 0.34 0.56 0.74 0.95 1.14 1.28 1.38 1.07 0.88 0.96 1.14 1.28 1.37 1.21 1.00 0.75 0.54 0.56 0.51 0.52 0.55 0.52 0.46 0.46 0.50 0.52 0.50 0.57 0.65 0.68 0.77 0.79 0.75 0.78 0.83 0.86 0.89 0.84 0.80 0.91 1.01
0.03 0.05 0.09 0.05 0.06 0.13 0.16 0.21 0.30 0.41 0.61 0.85 1.03 1.09 1.01 0.96 1.12 1.38 1.72 1.73 1.57 1.56 1.38 1.23 1.00 0.74 0.75 0.70 0.60 0.70 0.65 0.63 0.73 0.86 0.82 0.93 1.21 1.15 1.24 1.05 0.97 1.05 1.21 1.28 1.29 1.26 1.22 1.21 1.17
0.02 0.03 0.03 0.02 0.02 0.06 0.12 0.18 0.29 0.44 0.85 1.43 1.42 1.08 0.88 1.06 1.32 1.54 1.84 2.04 1.63 1.59 1.41 1.41 1.35 1.06 0.95 0.89 1.07 1.33 1.19 1.20 1.26 1.48 1.36 1.58 1.72 1.58 1.14 1.21 1.33 1.47 1.80 1.93 1.96 1.98 1.82 1.62 1.50
0.01 0.01 0.01 0.01 0.01 0.02 0.05 0.13 0.23 0.47 0.95 1.64 1.80 1.35 1.17 1.27 1.64 1.67 1.91 2.11 2.01 1.82 1.70 1.41 1.52 1.37 1.32 1.40 1.46 1.59 1.69 1.68 1.66 1.75 1.76 1.96 1.81 1.54 1.41 1.67 2.00 2.17 2.33 2.52 2.59 2.55 2.16 2.15 2.32
0.00 0.00 0.00 0.01 0.01 0.02 0.09 0.17 0.28 0.36 0.79 1.14 1.12 1.01 1.17 1.39 1.73 1.95 2.02 2.24 2.27 2.12 2.01 1.88 1.85 1.84 1.79 1.77 1.67 1.56 1.42 1.45 1.58 1.72 1.74 1.94 2.01 2.03 2.02 2.12 2.22 2.40 2.73 3.10 3.05 3.04 2.86 2.91 2.78
0.00 0.00 0.01 0.02 0.03 0.04 0.11 0.15 0.26 0.42 0.54 0.67 0.64 0.83 1.27 1.55 1.93 2.27 2.64 2.85 2.90 2.83 2.67 2.66 2.71 2.50 2.24 2.10 1.75 1.44 1.34 1.22 1.32 1.42 1.52 1.59 1.85 2.09 2.14 2.00 2.03 2.04 2.26 2.66 3.12 3.11 3.29 3.33 3.03
0.01 0.01 0.02 0.04 0.04 0.05 0.10 0.14 0.29 0.50 0.51 0.62 0.78 1.02 1.42 1.87 2.24 2.50 3.25 3.65 3.89 3.81 3.63 3.42 3.46 3.00 2.60 2.32 1.91 1.64 1.40 1.37 1.29 1.22 1.26 1.46 1.67 1.91 1.88 1.85 2.03 2.09 2.05 2.21 2.60 2.81 3.13 3.15 2.84
0.02 0.05 0.06 0.07 0.05 0.06 0.11 0.28 0.44 0.56 0.75 0.79 0.97 1.19 1.53 2.12 2.59 3.04 3.58 4.32 4.76 4.92 4.53 3.93 3.65 3.30 2.98 2.68 2.19 1.78 1.56 1.34 1.30 1.23 1.21 1.26 1.42 1.63 1.62 1.68 1.70 1.77 1.75 1.80 1.96 2.19 2.46 2.47 2.38
0.05 0.11 0.20 0.12 0.08 0.08 0.14 0.52 0.68 0.59 0.88 1.21 1.17 1.44 1.84 2.37 2.84 3.51 4.20 5.02 5.56 5.72 5.13 4.39 3.69 3.70 3.51 3.15 2.49 1.99 1.66 1.50 1.36 1.27 1.17 1.07 1.12 1.13 1.22 1.25 1.24 1.26 1.17 1.27 1.55 1.65 1.85 2.11 2.25
0.05 0.09 0.17 0.19 0.12 0.11 0.19 0.61 0.78 0.59 0.75 1.04 1.28 1.54 1.96 2.33 2.68 3.32 3.97 4.77 5.36 5.88 5.68 5.04 4.82 4.57 3.91 3.14 2.51 2.06 1.76 1.58 1.40 1.32 1.21 1.11 1.00 0.97 1.05 1.12 1.20 0.99 0.97 1.03 0.99 1.31 1.50 1.75 1.88
0.03 0.05 0.11 0.22 0.17 0.18 0.26 0.47 0.74 0.78 0.95 1.15 1.30 1.45 1.73 1.93 2.27 2.78 3.30 3.74 4.32 4.82 4.73 4.66 4.75 4.25 3.65 3.01 2.48 2.15 1.87 1.57 1.37 1.27 1.26 1.18 1.10 1.03 1.12 1.00 1.00 0.89 1.01 1.15 1.25 1.47 1.41 1.38 1.49
0.02 0.04 0.09 0.15 0.16 0.24 0.37 0.50 0.72 0.88 1.10 1.26 1.29 1.25 1.33 1.55 1.86 2.16 2.53 2.88 3.09 3.25 3.36 3.66 3.86 3.56 3.07 2.64 2.12 1.87 1.78 1.59 1.41 1.27 1.15 1.16 1.09 1.18 1.24 1.01 1.22 1.09 1.08 1.13 1.16 1.26 1.26 1.16 1.15
0.03 0.06 0.11 0.15 0.15 0.20 0.35 0.64 0.82 0.90 0.92 0.99 1.10 1.06 1.09 1.29 1.39 1.48 1.70 2.03 2.12 2.33 2.65 3.02 3.26 3.10 2.56 2.31 2.06 1.89 1.78 1.66 1.60 1.45 1.32 1.17 1.13 1.15 1.05 1.21 1.09 1.10 1.19 1.23 1.26 1.33 1.32 1.17 1.14
0.05 0.05 0.06 0.11 0.11 0.20 0.36 0.88 1.00 0.89 0.79 0.69 0.81 0.86 0.83 0.92 1.02 1.02 1.10 1.27 1.57 2.05 2.20 2.25 2.51 2.70 2.44 2.29 2.20 2.08 1.95 1.73 1.75 1.65 1.47 1.17 1.07 1.09 1.11 1.10 1.08 1.22 1.04 1.25 1.40 1.36 1.41 1.36 1.23
0.04 0.04 0.02 0.03 0.07 0.32 0.44 0.89 1.00 0.88 0.88 0.69 0.65 0.64 0.55 0.53 0.69 0.83 0.85 0.91 1.10 1.43 1.71 1.96 2.20 2.37 2.31 2.18 1.97 1.80 1.60 1.48 1.46 1.48 1.48 1.35 1.23 1.08 1.07 1.07 1.17 1.27 1.11 1.36 1.12 1.16 1.36 1.44 1.27
0.01 0.01 0.01 0.04 0.10 0.28 0.41 0.74 0.97 0.80 0.94 0.70 0.43 0.32 0.28 0.28 0.38 0.56 0.67 0.76 0.79 0.98 1.37 1.79 2.12 2.35 2.25 1.96 1.78 1.75 1.64 1.58 1.51 1.42 1.56 1.43 1.35 1.16 1.02 1.09 1.17 1.19 1.12 1.18 1.19 1.40 1.31 1.28 1.25
0.01 0.02 0.08 0.17 0.30 0.62 0.62 0.62 0.90 0.69 0.51 0.36 0.26 0.19 0.20 0.22 0.26 0.36 0.42 0.52 0.66 0.79 1.02 1.30 1.62 1.90 1.94 1.78 1.69 1.71 1.71 1.68 1.54 1.34 1.30 1.22 1.20 1.17 1.13 1.19 1.21 1.15 1.07 1.09 1.12 1.23 1.25 1.31 1.37
0.02 0.03 0.16 0.38 0.64 0.84 0.49 0.63 0.98 0.56 0.37 0.22 0.18 0.17 0.17 0.16 0.21 0.31 0.37 0.36 0.49 0.57 0.66 0.82 1.12 1.35 1.51 1.59 1.60 1.58 1.68 1.69 1.51 1.35 1.28 1.24 1.08 1.04 1.10 1.17 1.27 1.20 1.17 1.13 1.18 1.18 1.15 1.24 1.30
0.02 0.02 0.06 0.13 0.25 0.41 0.48 1.09 0.93 0.39 0.24 0.20 0.16 0.17 0.16 0.15 0.16 0.26 0.36 0.36 0.37 0.40 0.51 0.65 0.87 1.06 1.19 1.28 1.39 1.44 1.44 1.35 1.34 1.42 1.32 1.25 1.20 1.14 1.11 1.15 1.15 1.15 1.15 1.14 1.37 1.19 1.10 1.14 1.13
0.02 0.02 0.03 0.04 0.06 0.25 0.59 0.77 0.49 0.21 0.19 0.21 0.18 0.15 0.15 0.20 0.25 0.28 0.33 0.35 0.28 0.31 0.39 0.46 0.64 0.79 0.90 1.03 1.19 1.22 1.25 1.17 1.17 1.23 1.22 1.17 1.24 1.25 1.19 1.11 1.07 1.11 1.18 1.25 1.33 1.23 1.22 1.26 1.13
0.03 0.02 0.02 0.02 0.05 0.18 0.43 0.68 0.69 0.39 0.29 0.26 0.22 0.19 0.16 0.24 0.37 0.37 0.30 0.34 0.30 0.29 0.35 0.40 0.50 0.63 0.73 0.86 0.94 0.95 1.13 1.13 1.22 1.20 1.13 1.06 1.04 1.07 1.12 1.11 1.04 1.10 1.17 1.26 1.33 1.34 1.43 1.50 1.35
0.04 0.03 0.03 0.03 0.04 0.09 0.29 0.44 0.46 0.36 0.33 0.25 0.20 0.22 0.28 0.28 0.40 0.41 0.35 0.32 0.27 0.26 0.29 0.31 0.43 0.54 0.63 0.76 0.82 0.90 0.96 1.01 1.07 1.12 1.11 1.08 1.04 1.03 1.06 1.10 1.10 1.13 1.17 1.25 1.29 1.25 1.44 1.57 1.60
0.05 0.06 0.06 0.05 0.05 0.06 0.12 0.20 0.22 0.26 0.32 0.27 0.26 0.29 0.29 0.24 0.25 0.32 0.33 0.31 0.23 0.25 0.26 0.26 0.32 0.40 0.49 0.68 0.82 0.85 0.94 0.99 1.00 1.04 1.22 1.22 1.18 1.16 1.17 1.19 1.24 1.24 1.22 1.28 1.25 1.15 1.22 1.41 1.62

GEFSSGP_prec_meanprecacc_192.txt.gz
Total_Precipitation_Accumulation
0.05 0.13 0.26 0.54 1.24 1.35 0.97 0.62 0.52 0.42 0.40 0.36 0.37 0.35 0.42 0.63 0.95 1.35 0.69 0.33 0.25 0.24 0.28 0.42 0.62 0.61 0.58 0.58 0.62 0.64 0.60 0.58 0.56 0.58 0.64 0.62 0.60 0.52 0.48 0.51 0.54 0.60 0.60 0.56 0.65 0.69 0.67 0.72 0.82
0.11 0.17 0.30 0.68 1.17 1.00 0.76 0.58 0.49 0.34 0.34 0.37 0.49 0.50 0.41 0.50 0.50 0.49 0.44 0.36 0.23 0.19 0.21 0.24 0.43 0.52 0.52 0.51 0.54 0.57 0.55 0.47 0.47 0.49 0.53 0.52 0.55 0.52 0.49 0.51 0.55 0.58 0.56 0.58 0.68 0.69 0.72 0.71 0.74
0.13 0.18 0.33 0.72 0.80 0.56 0.48 0.38 0.32 0.31 0.39 0.48 0.55 0.58 0.59 0.57 0.46 0.46 0.42 0.32 0.28 0.22 0.19 0.25 0.35 0.38 0.43 0.45 0.47 0.51 0.53 0.48 0.45 0.44 0.50 0.51 0.51 0.52 0.50 0.54 0.56 0.58 0.59 0.59 0.61 0.70 0.77 0.76 0.72
0.12 0.21 0.38 0.54 0.44 0.26 0.20 0.22 0.26 0.37 0.56 0.78 0.79 0.76 0.70 0.52 0.40 0.36 0.40 0.36 0.32 0.23 0.18 0.25 0.33 0.31 0.34 0.38 0.41 0.45 0.46 0.46 0.45 0.46 0.51 0.56 0.59 0.62 0.54 0.51 0.55 0.61 0.65 0.66 0.68 0.76 0.80 0.74 0.71
0.11 0.28 0.49 0.46 0.26 0.21 0.18 0.19 0.30 0.43 0.60 0.79 0.84 0.90 0.92 0.67 0.43 0.39 0.38 0.44 0.37 0.27 0.20 0.24 0.38 0.35 0.34 0.38 0.43 0.44 0.44 0.46 0.45 0.47 0.49 0.57 0.64 0.62 0.57 0.56 0.59 0.62 0.67 0.69 0.73 0.74 0.76 0.76 0.80
0.14 0.30 0.38 0.33 0.19 0.16 0.20 0.24 0.31 0.43 0.60 0.78 1.05 1.14 1.10 0.87 0.72 0.60 0.49 0.61 0.50 0.34 0.24 0.27 0.42 0.45 0.41 0.42 0.45 0.47 0.45 0.47 0.49 0.48 0.51 0.57 0.62 0.63 0.64 0.66 0.68 0.63 0.67 0.70 0.70 0.70 0.67 0.69 0.82
0.07 0.16 0.22 0.22 0.17 0.15 0.19 0.23 0.31 0.48 0.62 0.87 1.15 1.29 1.18 1.03 0.85 0.75 0.70 0.76 0.78 0.61 0.49 0.41 0.44 0.46 0.46 0.53 0.55 0.50 0.49 0.51 0.50 0.53 0.55 0.56 0.58 0.61 0.62 0.73 0.77 0.71 0.71 0.72 0.74 0.73 0.72 0.73 0.86
0.03 0.07 0.13 0.13 0.12 0.13 0.17 0.21 0.34 0.56 0.74 0.95 1.14 1.28 1.38 1.07 0.88 0.96 1.14 1.29 1.37 1.21 1.00 0.77 0.57 0.60 0.56 0.58 0.59 0.56 0.48 0.48 0.52 0.56 0.55 0.60 0.69 0.73 0.82 0.83 0.79 0.82 0.90 0.92 0.93 0.88 0.83 0.94 1.03
0.03 0.06 0.09 0.06 0.06 0.14 0.16 0.21 0.30 0.41 0.61 0.85 1.03 1.09 1.01 0.96 1.12 1.38 1.73 1.75 1.58 1.58 1.40 1.25 1.01 0.78 0.81 0.76 0.64 0.72 0.66 0.64 0.75 0.90 0.86 0.97 1.29 1.25 1.35 1.12 1.01 1.09 1.27 1.34 1.35 1.31 1.25 1.23 1.20
0.02 0.03 0.04 0.02 0.02 0.06 0.12 0.18 0.29 0.44 0.85 1.43 1.42 1.08 0.88 1.06 1.32 1.54 1.85 2.06 1.66 1.62 1.43 1.42 1.36 1.07 0.98 0.93 1.12 1.39 1.24 1.25 1.31 1.55 1.42 1.65 1.80 1.71 1.26 1.30 1.40 1.52 1.86 1.99 2.01 2.03 1.86 1.65 1.54
0.01 0.01 0.01 0.01 0.01 0.02 0.05 0.13 0.23 0.47 0.95 1.64 1.80 1.35 1.17 1.27 1.64 1.67 1.92 2.13 2.03 1.84 1.70 1.42 1.53 1.39 1.33 1.44 1.51 1.66 1.77 1.77 1.75 1.83 1.85 2.04 1.86 1.61 1.54 1.82 2.11 2.25 2.40 2.59 2.63 2.58 2.19 2.18 2.36
0.00 0.00 0.00 0.01 0.01 0.02 0.09 0.17 0.28 0.36 0.79 1.14 1.12 1.01 1.17 1.39 1.73 1.95 2.02 2.25 2.28 2.13 2.02 1.88 1.86 1.86 1.81 1.82 1.73 1.61 1.47 1.51 1.64 1.80 1.82 2.00 2.08 2.11 2.11 2.24 2.35 2.51 2.83 3.19 3.12 3.11 2.91 2.95 2.80
0.00 0.00 0.01 0.02 0.03 0.04 0.11 0.15 0.26 0.42 0.54 0.67 0.64 0.83 1.27 1.55 1.93 2.28 2.64 2.86 2.91 2.83 2.68 2.66 2.72 2.51 2.27 2.16 1.82 1.48 1.38 1.28 1.36 1.48 1.60 1.64 1.92 2.17 2.22 2.09 2.10 2.09 2.31 2.71 3.19 3.17 3.36 3.38 3.07
0.01 0.01 0.02 0.04 0.04 0.05 0.10 0.14 0.29 0.50 0.51 0.62 0.78 1.02 1.42 1.87 2.24 2.50 3.25 3.65 3.89 3.82 3.63 3.43 3.48 3.02 2.64 2.36 1.97 1.70 1.44 1.41 1.33 1.27 1.31 1.51 1.74 1.99 1.96 1.93 2.11 2.15 2.10 2.26 2.67 2.87 3.21 3.22 2.91
0.02 0.05 0.07 0.07 0.05 0.06 0.12 0.29 0.44 0.56 0.75 0.79 0.97 1.19 1.53 2.12 2.59 3.04 3.58 4.32 4.76 4.92 4.53 3.93 3.65 3.32 3.02 2.72 2.22 1.83 1.61 1.38 1.33 1.29 1.28 1.32 1.47 1.70 1.70 1.77 1.77 1.84 1.79 1.86 2.02 2.27 2.54 2.54 2.44
0.05 0.12 0.21 0.12 0.08 0.08 0.14 0.52 0.69 0.59 0.88 1.21 1.17 1.44 1.84 2.37 2.84 3.51 4.20 5.02 5.56 5.72 5.13 4.40 3.70 3.70 3.52 3.19 2.52 2.02 1.70 1.54 1.45 1.36 1.24 1.14 1.17 1.19 1.29 1.32 1.31 1.32 1.22 1.34 1.63 1.72 1.92 2.18 2.32
0.05 0.09 0.17 0.19 0.12 0.11 0.19 0.61 0.78 0.59 0.75 1.04 1.28 1.54 1.96 2.33 2.68 3.32 3.97 4.77 5.36 5.88 5.68 5.05 4.84 4.60 3.92 3.16 2.54 2.10 1.81 1.64 1.46 1.38 1.27 1.18 1.05 1.02 1.11 1.18 1.27 1.04 1.02 1.09 1.04 1.38 1.58 1.83 1.96
0.04 0.06 0.11 0.22 0.17 0.18 0.26 0.47 0.74 0.78 0.95 1.15 1.30 1.45 1.73 1.93 2.27 2.78 3.30 3.74 4.32 4.82 4.73 4.66 4.77 4.29 3.66 3.02 2.50 2.18 1.91 1.60 1.41 1.33 1.32 1.23 1.15 1.10 1.18 1.06 1.08 0.96 1.08 1.21 1.30 1.54 1.49 1.46 1.55
0.02 0.05 0.09 0.15 0.17 0.24 0.37 0.50 0.72 0.88 1.10 1.26 1.29 1.25 1.33 1.55 1.86 2.16 2.53 2.88 3.09 3.25 3.36 3.67 3.88 3.59 3.09 2.66 2.15 1.91 1.82 1.63 1.45 1.32 1.22 1.22 1.15 1.26 1.33 1.08 1.31 1.17 1.14 1.19 1.22 1.34 1.34 1.23 1.21
0.03 0.06 0.12 0.15 0.15 0.20 0.35 0.64 0.82 0.90 0.92 0.99 1.10 1.06 1.09 1.29 1.39 1.48 1.70 2.03 2.12 2.33 2.65 3.03 3.27 3.11 2.57 2.32 2.09 1.93 1.82 1.69 1.64 1.50 1.40 1.24 1.20 1.24 1.13 1.31 1.16 1.18 1.27 1.29 1.34 1.43 1.41 1.25 1.22
0.05 0.06 0.07 0.11 0.11 0.20 0.36 0.89 1.00 0.89 0.80 0.69 0.81 0.86 0.83 0.92 1.02 1.02 1.10 1.27 1.57 2.05 2.20 2.26 2.52 2.71 2.45 2.31 2.22 2.10 1.98 1.77 1.80 1.70 1.53 1.22 1.12 1.16 1.18 1.18 1.17 1.32 1.13 1.35 1.51 1.46 1.51 1.47 1.32
0.04 0.04 0.02 0.03 0.07 0.32 0.44 0.90 1.01 0.89 0.88 0.69 0.65 0.64 0.55 0.53 0.69 0.83 0.85 0.91 1.10 1.43 1.71 1.96 2.21 2.38 2.32 2.19 1.98 1.82 1.63 1.52 1.49 1.51 1.52 1.39 1.28 1.12 1.12 1.12 1.23 1.36 1.18 1.44 1.17 1.24 1.46 1.54 1.38
0.01 0.01 0.01 0.04 0.11 0.29 0.41 0.74 0.98 0.80 0.95 0.70 0.43 0.32 0.28 0.28 0.38 0.56 0.67 0.76 0.79 0.98 1.37 1.79 2.12 2.36 2.26 1.98 1.80 1.78 1.67 1.62 1.53 1.45 1.60 1.48 1.41 1.22 1.07 1.13 1.22 1.26 1.18 1.24 1.25 1.49 1.39 1.35 1.33
0.01 0.02 0.08 0.17 0.30 0.63 0.62 0.62 0.90 0.69 0.51 0.36 0.26 0.19 0.20 0.22 0.26 0.36 0.42 0.52 0.66 0.79 1.02 1.30 1.63 1.91 1.95 1.79 1.71 1.74 1.75 1.71 1.59 1.39 1.35 1.25 1.25 1.22 1.17 1.24 1.26 1.20 1.12 1.15 1.19 1.31 1.33 1.39 1.45
0.02 0.03 0.17 0.38 0.65 0.85 0.50 0.63 0.98 0.56 0.38 0.22 0.18 0.17 0.17 0.16 0.21 0.31 0.37 0.36 0.49 0.57 0.66 0.82 1.12 1.36 1.52 1.59 1.61 1.60 1.71 1.71 1.54 1.38 1.30 1.26 1.11 1.06 1.14 1.22 1.34 1.26 1.24 1.19 1.26 1.26 1.23 1.31 1.37
0.02 0.02 0.06 0.13 0.26 0.43 0.49 1.10 0.94 0.39 0.24 0.20 0.16 0.17 0.16 0.15 0.16 0.26 0.36 0.36 0.37 0.40 0.52 0.66 0.87 1.06 1.20 1.29 1.41 1.47 1.47 1.37 1.36 1.44 1.34 1.27 1.21 1.15 1.14 1.21 1.19 1.20 1.21 1.19 1.43 1.24 1.15 1.19 1.19
0.02 0.02 0.03 0.04 0.07 0.26 0.59 0.78 0.50 0.22 0.19 0.21 0.18 0.15 0.15 0.20 0.25 0.28 0.33 0.35 0.29 0.31 0.40 0.47 0.64 0.80 0.90 1.03 1.20 1.24 1.28 1.19 1.20 1.25 1.24 1.19 1.26 1.27 1.22 1.14 1.10 1.14 1.22 1.28 1.37 1.28 1.27 1.30 1.17
0.03 0.02 0.02 0.02 0.05 0.18 0.43 0.68 0.69 0.40 0.30 0.26 0.22 0.19 0.16 0.24 0.37 0.38 0.31 0.35 0.31 0.29 0.35 0.41 0.50 0.63 0.74 0.87 0.94 0.96 1.15 1.16 1.25 1.23 1.15 1.08 1.06 1.09 1.14 1.12 1.06 1.12 1.19 1.29 1.36 1.38 1.47 1.53 1.39
0.04 0.03 0.03 0.03 0.04 0.09 0.29 0.45 0.48 0.41 0.35 0.25 0.20 0.22 0.28 0.28 0.40 0.41 0.35 0.32 0.28 0.27 0.29 0.32 0.43 0.55 0.64 0.76 0.83 0.90 0.96 1.02 1.09 1.14 1.14 1.11 1.07 1.05 1.08 1.12 1.14 1.16 1.21 1.30 1.33 1.29 1.47 1.60 1.63
0.05 0.06 0.06 0.05 0.05 0.06 0.12 0.21 0.23 0.28 0.34 0.27 0.26 0.29 0.29 0.24 0.25 0.32 0.33 0.32 0.24 0.26 0.27 0.28 0.34 0.41 0.50 0.69 0.82 0.85 0.94 1.00 1.02 1.06 1.24 1.24 1.20 1.18 1.20 1.22 1.28 1.28 1.26 1.33 1.30 1.20 1.26 1.45 1.65

GEFSSGP_prec_meanprecacc_198.txt.gz
Total_Precipitation_Accumulation
0.06 0.17 0.33 0.69 1.37 1.45 1.01 0.64 0.53 0.43 0.41 0.37 0.37 0.36 0.44 0.65 0.98 1.38 0.75 0.36 0.28 0.26 0.31 0.45 0.68 0.69 0.73 0.66 0.67 0.70 0.65 0.62 0.60 0.63 0.69 0.66 0.63 0.54 0.50 0.52 0.55 0.62 0.62 0.58 0.66 0.71 0.68 0.73 0.83
0.14 0.24 0.39 0.87 1.30 1.06 0.80 0.60 0.51 0.36 0.34 0.37 0.50 0.50 0.41 0.51 0.51 0.51 0.51 0.41 0.26 0.22 0.22 0.25 0.48 0.58 0.62 0.58 0.60 0.65 0.62 0.54 0.54 0.55 0.58 0.56 0.58 0.54 0.50 0.52 0.55 0.59 0.57 0.60 0.70 0.70 0.73 0.72 0.76
0.20 0.32 0.47 0.84 0.86 0.60 0.51 0.41 0.36 0.34 0.40 0.48 0.55 0.59 0.59 0.58 0.47 0.48 0.47 0.38 0.33 0.24 0.20 0.26 0.38 0.42 0.49 0.49 0.51 0.56 0.59 0.55 0.50 0.47 0.53 0.54 0.53 0.53 0.52 0.55 0.57 0.59 0.60 0.60 0.63 0.73 0.80 0.78 0.74
0.22 0.35 0.47 0.61 0.48 0.29 0.23 0.24 0.27 0.38 0.56 0.78 0.79 0.76 0.71 0.53 0.42 0.39 0.45 0.40 0.34 0.24 0.19 0.25 0.35 0.34 0.37 0.40 0.43 0.48 0.51 0.52 0.50 0.50 0.54 0.60 0.63 0.65 0.57 0.52 0.57 0.63 0.67 0.69 0.70 0.78 0.82 0.76 0.73
0.16 0.34 0.55 0.52 0.30 0.23 0.18 0.19 0.31 0.44 0.60 0.79 0.84 0.91 0.93 0.68 0.44 0.43 0.43 0.46 0.38 0.27 0.21 0.25 0.39 0.36 0.34 0.39 0.43 0.46 0.47 0.49 0.48 0.51 0.53 0.61 0.67 0.66 0.61 0.60 0.61 0.63 0.68 0.70 0.74 0.76 0.79 0.79 0.82
0.24 0.36 0.43 0.37 0.20 0.17 0.20 0.24 0.31 0.44 0.61 0.78 1.05 1.15 1.11 0.88 0.73 0.62 0.52 0.63 0.50 0.35 0.25 0.28 0.43 0.47 0.42 0.43 0.46 0.49 0.47 0.49 0.50 0.50 0.53 0.58 0.63 0.64 0.66 0.68 0.71 0.65 0.68 0.71 0.72 0.72 0.70 0.72 0.85
0.20 0.24 0.26 0.24 0.18 0.16 0.19 0.24 0.31 0.48 0.62 0.87 1.15 1.30 1.18 1.04 0.86 0.76 0.72 0.78 0.79 0.63 0.50 0.42 0.44 0.47 0.47 0.54 0.57 0.53 0.53 0.53 0.51 0.54 0.57 0.57 0.60 0.62 0.62 0.74 0.78 0.73 0.73 0.74 0.76 0.75 0.73 0.76 0.89
0.09 0.13 0.15 0.14 0.13 0.13 0.17 0.21 0.34 0.56 0.74 0.95 1.14 1.29 1.39 1.08 0.89 0.98 1.16 1.31 1.39 1.23 1.02 0.77 0.58 0.60 0.57 0.61 0.62 0.59 0.50 0.50 0.54 0.58 0.58 0.62 0.71 0.75 0.83 0.84 0.81 0.84 0.92 0.94 0.95 0.91 0.84 0.95 1.05
0.06 0.09 0.10 0.06 0.06 0.14 0.16 0.21 0.30 0.41 0.61 0.85 1.03 1.09 1.01 0.96 1.12 1.39 1.75 1.77 1.61 1.61 1.42 1.27 1.03 0.79 0.82 0.77 0.64 0.73 0.67 0.65 0.75 0.92 0.90 1.00 1.30 1.26 1.37 1.14 1.04 1.13 1.31 1.38 1.38 1.34 1.27 1.24 1.21
0.03 0.05 0.04 0.02 0.02 0.06 0.12 0.18 0.29 0.44 0.85 1.43 1.42 1.08 0.88 1.06 1.32 1.55 1.86 2.07 1.68 1.65 1.46 1.44 1.38 1.09 1.00 0.94 1.12 1.39 1.24 1.25 1.32 1.56 1.43 1.68 1.83 1.73 1.28 1.34 1.48 1.59 1.92 2.06 2.07 2.08 1.89 1.68 1.56
0.01 0.01 0.01 0.01 0.02 0.02 0.05 0.13 0.23 0.47 0.95 1.64 1.80 1.35 1.17 1.27 1.64 1.67 1.92 2.13 2.04 1.85 1.71 1.44 1.55 1.41 1.35 1.47 1.53 1.68 1.78 1.78 1.76 1.84 1.86 2.07 1.91 1.65 1.57 1.86 2.17 2.31 2.45 2.63 2.68 2.61 2.22 2.20 2.38
0.01 0.00 0.01 0.01 0.01 0.02 0.09 0.18 0.28 0.36 0.79 1.14 1.12 1.01 1.17 1.39 1.73 1.95 2.02 2.25 2.29 2.13 2.02 1.89 1.87 1.87 1.83 1.84 1.75 1.64 1.49 1.53 1.65 1.81 1.83 2.03 2.11 2.14 2.13 2.27 2.38 2.55 2.86 3.21 3.14 3.14 2.93 2.97 2.82
0.01 0.00 0.01 0.02 0.03 0.05 0.11 0.15 0.27 0.42 0.54 0.67 0.64 0.83 1.27 1.55 1.94 2.28 2.64 2.86 2.91 2.83 2.68 2.67 2.73 2.52 2.27 2.17 1.84 1.50 1.40 1.30 1.39 1.50 1.61 1.65 1.94 2.18 2.24 2.11 2.12 2.11 2.32 2.73 3.23 3.21 3.38 3.40 3.09
0.01 0.01 0.02 0.04 0.04 0.05 0.10 0.14 0.30 0.50 0.51 0.62 0.78 1.02 1.42 1.87 2.24 2.50 3.25 3.65 3.89 3.82 3.63 3.43 3.48 3.02 2.64 2.37 1.99 1.72 1.47 1.44 1.37 1.31 1.34 1.53 1.76 2.01 1.99 1.95 2.12 2.17 2.12 2.28 2.70 2.89 3.23 3.24 2.92
0.03 0.05 0.07 0.07 0.05 0.06 0.12 0.29 0.45 0.57 0.75 0.79 0.97 1.19 1.53 2.12 2.59 3.04 3.58 4.32 4.76 4.92 4.53 3.93 3.66 3.32 3.02 2.73 2.23 1.85 1.67 1.41 1.39 1.38 1.31 1.35 1.49 1.72 1.71 1.79 1.79 1.86 1.82 1.88 2.06 2.31 2.58 2.57 2.46
0.06 0.13 0.21 0.12 0.08 0.08 0.14 0.53 0.70 0.59 0.88 1.21 1.17 1.44 1.84 2.37 2.84 3.51 4.20 5.02 5.56 5.72 5.13 4.40 3.70 3.70 3.53 3.20 2.53 2.04 1.73 1.57 1.48 1.40 1.27 1.20 1.23 1.21 1.31 1.35 1.34 1.35 1.25 1.37 1.66 1.75 1.96 2.21 2.33
0.06 0.11 0.18 0.19 0.13 0.11 0.20 0.61 0.79 0.59 0.75 1.04 1.28 1.54 1.96 2.33 2.68 3.32 3.97 4.77 5.36 5.88 5.68 5.05 4.84 4.60 3.93 3.17 2.55 2.12 1.83 1.66 1.48 1.39 1.30 1.23 1.13 1.08 1.14 1.21 1.30 1.08 1.05 1.12 1.07 1.41 1.60 1.85 1.98
0.06 0.07 0.12 0.23 0.18 0.18 0.27 0.47 0.75 0.78 0.95 1.16 1.30 1.45 1.73 1.93 2.27 2.78 3.30 3.74 4.32 4.82 4.73 4.67 4.77 4.29 3.67 3.03 2.52 2.20 1.93 1.63 1.43 1.34 1.34 1.26 1.19 1.14 1.23 1.09 1.10 0.98 1.12 1.25 1.35 1.58 1.52 1.49 1.59
0.04 0.06 0.10 0.17 0.17 0.24 0.37 0.50 0.72 0.88 1.10 1.26 1.29 1.25 1.33 1.55 1.86 2.16 2.53 2.88 3.09 3.25 3.36 3.67 3.88 3.59 3.10 2.67 2.15 1.93 1.83 1.65 1.47 1.33 1.24 1.25 1.18 1.30 1.37 1.12 1.36 1.21 1.18 1.24 1.26 1.38 1.38 1.27 1.25
0.04 0.07 0.12 0.16 0.16 0.21 0.36 0.65 0.82 0.90 0.93 1.00 1.10 1.06 1.09 1.29 1.39 1.48 1.70 2.03 2.12 2.33 2.65 3.03 3.27 3.11 2.57 2.32 2.09 1.94 1.84 1.71 1.66 1.51 1.43 1.26 1.22 1.26 1.16 1.34 1.21 1.23 1.32 1.35 1.40 1.48 1.47 1.31 1.26
0.05 0.06 0.08 0.12 0.12 0.22 0.38 0.90 1.01 0.89 0.80 0.71 0.82 0.87 0.84 0.92 1.02 1.02 1.10 1.27 1.57 2.05 2.20 2.26 2.52 2.71 2.45 2.31 2.22 2.10 1.99 1.79 1.83 1.72 1.55 1.24 1.14 1.17 1.20 1.20 1.20 1.37 1.18 1.40 1.55 1.51 1.56 1.52 1.37
0.05 0.04 0.03 0.04 0.08 0.33 0.45 0.91 1.03 0.91 0.89 0.71 0.67 0.66 0.56 0.54 0.69 0.84 0.85 0.91 1.10 1.43 1.71 1.96 2.21 2.39 2.32 2.19 1.98 1.82 1.64 1.53 1.51 1.53 1.54 1.42 1.30 1.14 1.13 1.14 1.26 1.40 1.21 1.47 1.20 1.26 1.49 1.58 1.43
0.02 0.01 0.02 0.04 0.11 0.30 0.43 0.77 0.99 0.83 0.97 0.73 0.46 0.33 0.28 0.29 0.39 0.57 0.67 0.76 0.79 0.98 1.37 1.79 2.13 2.36 2.26 1.98 1.80 1.79 1.68 1.63 1.56 1.47 1.62 1.51 1.45 1.25 1.09 1.15 1.25 1.30 1.22 1.28 1.28 1.52 1.43 1.40 1.38
0.01 0.02 0.08 0.18 0.31 0.64 0.63 0.64 0.93 0.71 0.54 0.39 0.28 0.20 0.21 0.22 0.27 0.36 0.43 0.53 0.67 0.79 1.02 1.30 1.63 1.91 1.95 1.80 1.71 1.74 1.76 1.73 1.60 1.40 1.37 1.27 1.28 1.25 1.20 1.26 1.28 1.22 1.16 1.20 1.22 1.34 1.36 1.42 1.48
0.02 0.03 0.17 0.39 0.66 0.85 0.51 0.66 1.01 0.59 0.40 0.26 0.21 0.19 0.18 0.17 0.22 0.32 0.39 0.41 0.51 0.58 0.67 0.83 1.14 1.37 1.54 1.60 1.62 1.61 1.73 1.73 1.55 1.38 1.31 1.29 1.12 1.08 1.15 1.23 1.35 1.28 1.27 1.25 1.32 1.30 1.27 1.34 1.40
0.02 0.02 0.07 0.14 0.27 0.43 0.50 1.12 0.97 0.42 0.27 0.23 0.19 0.19 0.18 0.17 0.18 0.28 0.38 0.39 0.41 0.43 0.54 0.68 0.90 1.10 1.23 1.32 1.43 1.48 1.48 1.39 1.37 1.45 1.35 1.28 1.22 1.16 1.15 1.21 1.20 1.21 1.23 1.22 1.48 1.29 1.19 1.23 1.22
0.02 0.02 0.03 0.04 0.07 0.26 0.60 0.79 0.52 0.25 0.21 0.24 0.21 0.20 0.19 0.23 0.28 0.33 0.44 0.46 0.35 0.35 0.44 0.52 0.69 0.83 0.93 1.07 1.22 1.26 1.30 1.21 1.21 1.26 1.25 1.20 1.27 1.28 1.24 1.16 1.11 1.16 1.24 1.31 1.41 1.32 1.32 1.34 1.20
0.03 0.02 0.02 0.02 0.05 0.19 0.45 0.70 0.72 0.43 0.33 0.28 0.24 0.23 0.20 0.26 0.40 0.43 0.39 0.41 0.35 0.33 0.40 0.47 0.58 0.69 0.80 0.93 0.98 0.98 1.17 1.17 1.26 1.24 1.16 1.09 1.08 1.10 1.16 1.14 1.08 1.13 1.21 1.31 1.39 1.42 1.52 1.58 1.44
0.04 0.03 0.03 0.03 0.04 0.10 0.30 0.48 0.51 0.45 0.40 0.28 0.22 0.25 0.31 0.30 0.42 0.43 0.39 0.41 0.37 0.35 0.38 0.41 0.52 0.62 0.72 0.83 0.88 0.94 0.99 1.05 1.11 1.15 1.15 1.12 1.08 1.07 1.10 1.14 1.16 1.18 1.23 1.32 1.36 1.33 1.52 1.66 1.68
0.05 0.06 0.06 0.05 0.05 0.06 0.12 0.23 0.25 0.31 0.37 0.30 0.29 0.36 0.38 0.27 0.27 0.34 0.39 0.45 0.34 0.34 0.38 0.39 0.44 0.50 0.58 0.75 0.88 0.91 1.01 1.05 1.05 1.09 1.26 1.26 1.22 1.20 1.22 1.24 1.31 1.29 1.28 1.35 1.34 1.25 1.30 1.48 1.69

GEFSSGP_prec_meanprecacc_204.txt.gz
Total_Precipitation_Accumulation
0.07 0.18 0.34 0.70 1.38 1.47 1.03 0.65 0.54 0.43 0.41 0.37 0.38 0.36 0.44 0.66 0.99 1.39 0.76 0.37 0.30 0.29 0.38 0.57 0.82 0.83 0.82 0.74 0.75 0.76 0.71 0.67 0.66 0.70 0.74 0.70 0.66 0.57 0.51 0.53 0.57 0.63 0.64 0.59 0.68 0.72 0.69 0.75 0.86
0.15 0.26 0.43 0.91 1.31 1.07 0.81 0.61 0.51 0.36 0.34 0.38 0.50 0.51 0.41 0.51 0.52 0.51 0.52 0.44 0.29 0.24 0.28 0.34 0.62 0.70 0.72 0.69 0.69 0.73 0.67 0.58 0.58 0.60 0.61 0.58 0.60 0.56 0.52 0.54 0.57 0.61 0.59 0.62 0.71 0.72 0.74 0.74 0.78
0.22 0.34 0.54 0.90 0.88 0.60 0.52 0.42 0.36 0.34 0.40 0.48 0.55 0.59 0.59 0.59 0.48 0.50 0.48 0.39 0.34 0.27 0.25 0.38 0.51 0.52 0.58 0.59 0.60 0.64 0.65 0.60 0.54 0.51 0.56 0.55 0.55 0.55 0.54 0.57 0.59 0.62 0.62 0.62 0.65 0.75 0.81 0.80 0.77
0.23 0.37 0.52 0.63 0.49 0.29 0.23 0.24 0.28 0.39 0.56 0.78 0.79 0.77 0.71 0.54 0.43 0.42 0.46 0.41 0.35 0.26 0.21 0.31 0.43 0.42 0.49 0.51 0.52 0.56 0.58 0.57 0.55 0.53 0.57 0.62 0.65 0.67 0.60 0.55 0.59 0.65 0.69 0.70 0.72 0.80 0.85 0.78 0.76
0.17 0.36 0.56 0.52 0.30 0.23 0.19 0.20 0.31 0.44 0.61 0.79 0.84 0.91 0.93 0.68 0.46 0.45 0.44 0.46 0.39 0.28 0.21 0.27 0.43 0.42 0.43 0.46 0.49 0.51 0.53 0.55 0.52 0.54 0.56 0.64 0.70 0.69 0.63 0.62 0.64 0.66 0.70 0.72 0.77 0.80 0.83 0.83 0.86
0.24 0.37 0.43 0.37 0.21 0.18 0.21 0.24 0.31 0.44 0.61 0.78 1.05 1.15 1.11 0.88 0.74 0.64 0.53 0.64 0.51 0.36 0.25 0.30 0.47 0.52 0.48 0.49 0.50 0.52 0.52 0.52 0.53 0.53 0.56 0.61 0.66 0.67 0.68 0.71 0.74 0.68 0.71 0.75 0.76 0.77 0.74 0.79 0.92
0.21 0.25 0.27 0.24 0.19 0.17 0.20 0.24 0.31 0.48 0.62 0.87 1.15 1.30 1.19 1.05 0.88 0.77 0.72 0.78 0.81 0.64 0.52 0.43 0.46 0.49 0.51 0.59 0.62 0.56 0.55 0.55 0.55 0.58 0.60 0.59 0.62 0.64 0.65 0.77 0.80 0.75 0.76 0.79 0.81 0.78 0.78 0.83 0.96
0.10 0.15 0.16 0.14 0.13 0.13 0.18 0.22 0.34 0.56 0.74 0.95 1.14 1.29 1.39 1.08 0.90 0.98 1.17 1.32 1.40 1.26 1.04 0.78 0.58 0.61 0.58 0.63 0.65 0.62 0.52 0.52 0.57 0.63 0.63 0.66 0.74 0.79 0.88 0.88 0.85 0.88 0.95 0.97 1.01 0.95 0.89 1.00 1.10
0.07 0.10 0.11 0.07 0.06 0.14 0.16 0.21 0.30 0.41 0.61 0.85 1.03 1.09 1.01 0.96 1.12 1.39 1.75 1.78 1.61 1.62 1.43 1.28 1.04 0.79 0.82 0.78 0.67 0.76 0.69 0.67 0.80 0.98 0.96 1.04 1.34 1.31 1.41 1.18 1.08 1.17 1.36 1.41 1.43 1.40 1.32 1.29 1.25
0.04 0.05 0.04 0.02 0.02 0.06 0.12 0.18 0.29 0.44 0.85 1.43 1.42 1.08 0.88 1.06 1.32 1.55 1.86 2.08 1.68 1.65 1.46 1.45 1.38 1.09 1.00 0.95 1.13 1.41 1.26 1.27 1.35 1.58 1.47 1.74 1.86 1.75 1.30 1.38 1.53 1.65 2.00 2.11 2.13 2.15 1.95 1.70 1.58
0.02 0.02 0.02 0.01 0.02 0.02 0.05 0.13 0.23 0.47 0.95 1.64 1.80 1.35 1.17 1.27 1.65 1.67 1.92 2.13 2.04 1.86 1.72 1.44 1.55 1.41 1.37 1.49 1.55 1.70 1.79 1.78 1.76 1.85 1.88 2.11 1.94 1.66 1.58 1.88 2.22 2.38 2.54 2.70 2.74 2.66 2.24 2.21 2.39
0.01 0.00 0.01 0.01 0.01 0.02 0.09 0.18 0.28 0.36 0.79 1.14 1.12 1.01 1.17 1.39 1.73 1.95 2.02 2.25 2.29 2.14 2.03 1.90 1.87 1.87 1.84 1.86 1.78 1.66 1.51 1.54 1.66 1.82 1.85 2.05 2.13 2.15 2.15 2.28 2.40 2.59 2.92 3.27 3.19 3.16 2.95 2.99 2.83
0.01 0.00 0.01 0.02 0.03 0.05 0.11 0.15 0.27 0.42 0.54 0.67 0.64 0.83 1.27 1.55 1.94 2.28 2.64 2.86 2.91 2.83 2.68 2.67 2.73 2.52 2.28 2.19 1.86 1.52 1.42 1.32 1.40 1.52 1.63 1.68 1.97 2.21 2.26 2.13 2.16 2.16 2.37 2.76 3.25 3.23 3.41 3.43 3.11
0.01 0.01 0.02 0.04 0.04 0.05 0.10 0.15 0.30 0.50 0.52 0.62 0.78 1.02 1.42 1.87 2.25 2.50 3.25 3.65 3.89 3.82 3.63 3.43 3.48 3.02 2.65 2.38 1.99 1.72 1.48 1.47 1.40 1.33 1.36 1.56 1.78 2.03 2.00 1.97 2.15 2.20 2.14 2.29 2.72 2.92 3.25 3.27 2.94
0.03 0.06 0.07 0.07 0.05 0.06 0.12 0.29 0.45 0.57 0.75 0.79 0.97 1.19 1.53 2.12 2.59 3.04 3.58 4.32 4.76 4.92 4.53 3.94 3.66 3.32 3.02 2.73 2.23 1.85 1.67 1.42 1.40 1.39 1.34 1.40 1.52 1.74 1.73 1.81 1.80 1.88 1.84 1.91 2.09 2.35 2.63 2.61 2.49
0.07 0.13 0.22 0.12 0.08 0.09 0.14 0.53 0.71 0.60 0.88 1.21 1.17 1.44 1.84 2.37 2.84 3.51 4.20 5.02 5.56 5.72 5.13 4.40 3.70 3.71 3.53 3.20 2.54 2.05 1.75 1.58 1.49 1.42 1.30 1.23 1.26 1.25 1.33 1.37 1.35 1.37 1.27 1.40 1.70 1.81 2.02 2.25 2.36
0.06 0.11 0.18 0.19 0.13 0.11 0.20 0.61 0.79 0.59 0.75 1.04 1.29 1.54 1.96 2.33 2.68 3.32 3.97 4.77 5.36 5.89 5.68 5.05 4.85 4.60 3.93 3.18 2.56 2.13 1.84 1.67 1.49 1.41 1.32 1.26 1.17 1.13 1.17 1.24 1.32 1.10 1.07 1.15 1.10 1.45 1.65 1.89 2.02
0.06 0.07 0.12 0.24 0.18 0.18 0.27 0.47 0.75 0.78 0.95 1.16 1.30 1.45 1.73 1.93 2.27 2.78 3.30 3.74 4.32 4.83 4.73 4.67 4.77 4.30 3.67 3.03 2.52 2.21 1.94 1.64 1.44 1.35 1.35 1.28 1.22 1.19 1.27 1.12 1.13 1.01 1.14 1.29 1.38 1.62 1.57 1.53 1.65
0.05 0.06 0.10 0.17 0.18 0.24 0.37 0.50 0.72 0.88 1.10 1.26 1.29 1.25 1.33 1.55 1.86 2.16 2.53 2.88 3.09 3.25 3.36 3.67 3.88 3.59 3.10 2.67 2.16 1.93 1.84 1.66 1.48 1.34 1.25 1.27 1.22 1.33 1.40 1.15 1.38 1.23 1.20 1.27 1.31 1.43 1.43 1.31 1.29
0.05 0.07 0.13 0.16 0.16 0.21 0.36 0.65 0.82 0.90 0.93 1.00 1.10 1.06 1.09 1.29 1.39 1.48 1.70 2.03 2.12 2.34 2.65 3.03 3.27 3.11 2.57 2.32 2.10 1.95 1.85 1.72 1.67 1.52 1.44 1.28 1.24 1.29 1.19 1.38 1.23 1.26 1.34 1.38 1.45 1.53 1.52 1.37 1.31
0.06 0.07 0.08 0.12 0.12 0.22 0.38 0.90 1.01 0.90 0.80 0.71 0.82 0.87 0.84 0.92 1.02 1.02 1.10 1.27 1.58 2.05 2.20 2.26 2.52 2.72 2.45 2.31 2.22 2.11 2.00 1.81 1.84 1.73 1.56 1.27 1.17 1.20 1.22 1.22 1.23 1.40 1.22 1.43 1.59 1.55 1.60 1.57 1.43
0.05 0.05 0.04 0.04 0.09 0.33 0.46 0.91 1.03 0.91 0.89 0.71 0.67 0.66 0.56 0.54 0.70 0.84 0.85 0.91 1.11 1.43 1.72 1.97 2.22 2.39 2.33 2.20 1.99 1.83 1.64 1.53 1.52 1.54 1.55 1.43 1.32 1.16 1.15 1.15 1.29 1.42 1.24 1.51 1.25 1.30 1.51 1.61 1.47
0.02 0.02 0.03 0.05 0.12 0.31 0.44 0.78 1.00 0.83 0.97 0.73 0.46 0.33 0.29 0.29 0.40 0.57 0.68 0.77 0.79 0.99 1.38 1.80 2.14 2.38 2.28 1.99 1.81 1.79 1.69 1.64 1.57 1.50 1.65 1.53 1.47 1.27 1.11 1.17 1.28 1.33 1.25 1.32 1.33 1.57 1.48 1.44 1.42
0.01 0.02 0.08 0.18 0.32 0.64 0.63 0.65 0.93 0.71 0.54 0.39 0.28 0.20 0.21 0.23 0.27 0.36 0.43 0.53 0.67 0.80 1.04 1.32 1.65 1.94 1.98 1.83 1.73 1.75 1.77 1.75 1.62 1.42 1.39 1.31 1.32 1.28 1.22 1.28 1.31 1.26 1.19 1.23 1.26 1.38 1.41 1.47 1.53
0.02 0.03 0.18 0.40 0.66 0.86 0.51 0.66 1.02 0.59 0.41 0.26 0.21 0.19 0.19 0.17 0.22 0.32 0.40 0.42 0.51 0.60 0.73 0.92 1.21 1.42 1.60 1.67 1.68 1.66 1.76 1.75 1.57 1.40 1.34 1.34 1.19 1.12 1.16 1.26 1.38 1.32 1.32 1.29 1.37 1.36 1.31 1.38 1.43
0.02 0.02 0.07 0.15 0.28 0.44 0.50 1.12 0.98 0.42 0.27 0.23 0.19 0.20 0.18 0.18 0.19 0.30 0.40 0.41 0.42 0.46 0.59 0.74 0.95 1.16 1.36 1.48 1.54 1.55 1.51 1.41 1.39 1.46 1.37 1.32 1.27 1.20 1.17 1.24 1.24 1.26 1.29 1.29 1.54 1.35 1.24 1.27 1.25
0.02 0.02 0.03 0.04 0.07 0.27 0.61 0.79 0.52 0.25 0.22 0.24 0.21 0.21 0.20 0.24 0.30 0.36 0.46 0.48 0.37 0.38 0.47 0.55 0.73 0.91 1.06 1.27 1.37 1.30 1.32 1.23 1.23 1.28 1.27 1.22 1.30 1.31 1.27 1.18 1.15 1.20 1.29 1.37 1.45 1.36 1.36 1.39 1.24
0.03 0.02 0.02 0.02 0.05 0.19 0.45 0.70 0.72 0.44 0.33 0.28 0.25 0.24 0.21 0.27 0.41 0.45 0.41 0.44 0.37 0.35 0.42 0.50 0.65 0.76 0.85 1.03 1.10 1.03 1.21 1.21 1.29 1.26 1.18 1.11 1.10 1.13 1.19 1.17 1.11 1.16 1.24 1.34 1.43 1.46 1.56 1.63 1.48
0.04 0.03 0.03 0.03 0.04 0.10 0.30 0.48 0.51 0.46 0.40 0.28 0.23 0.26 0.32 0.31 0.43 0.44 0.40 0.42 0.39 0.37 0.41 0.48 0.63 0.72 0.77 0.90 0.94 1.00 1.06 1.09 1.15 1.18 1.19 1.16 1.11 1.10 1.14 1.19 1.21 1.22 1.26 1.36 1.41 1.38 1.58 1.72 1.74
0.05 0.06 0.06 0.05 0.05 0.06 0.12 0.24 0.26 0.31 0.37 0.31 0.30 0.36 0.39 0.28 0.29 0.35 0.40 0.46 0.35 0.35 0.40 0.44 0.52 0.58 0.63 0.79 0.92 0.97 1.06 1.07 1.06 1.10 1.27 1.29 1.25 1.24 1.26 1.30 1.37 1.34 1.32 1.39 1.38 1.29 1.36 1.55 1.77

GEFSSGP_prec_meanprecacc_210.txt.gz
Total_Precipitation_Accumulation
0.07 0.19 0.35 0.71 1.39 1.48 1.04 0.66 0.54 0.44 0.42 0.38 0.39 0.37 0.45 0.67 1.01 1.42 0.78 0.40 0.34 0.36 0.51 0.75 1.01 0.97 0.94 0.87 0.87 0.86 0.81 0.78 0.77 0.79 0.84 0.80 0.73 0.63 0.57 0.57 0.60 0.66 0.66 0.62 0.71 0.77 0.73 0.77 0.87
0.16 0.26 0.43 0.92 1.32 1.08 0.82 0.62 0.52 0.36 0.35 0.38 0.50 0.51 0.42 0.52 0.52 0.53 0.54 0.46 0.32 0.30 0.41 0.56 0.84 0.86 0.87 0.84 0.84 0.83 0.77 0.68 0.68 0.69 0.69 0.66 0.67 0.61 0.56 0.57 0.60 0.63 0.61 0.63 0.74 0.78 0.78 0.76 0.80
0.23 0.35 0.55 0.91 0.88 0.61 0.53 0.43 0.37 0.34 0.40 0.49 0.56 0.59 0.60 0.60 0.48 0.51 0.50 0.41 0.37 0.32 0.37 0.56 0.72 0.72 0.76 0.74 0.73 0.77 0.75 0.69 0.64 0.61 0.65 0.64 0.61 0.59 0.57 0.60 0.61 0.65 0.65 0.64 0.68 0.79 0.84 0.82 0.80
0.25 0.39 0.53 0.63 0.50 0.30 0.23 0.25 0.28 0.39 0.57 0.78 0.79 0.77 0.71 0.54 0.44 0.43 0.48 0.42 0.37 0.30 0.28 0.44 0.60 0.61 0.71 0.68 0.64 0.67 0.67 0.67 0.64 0.62 0.65 0.70 0.72 0.72 0.64 0.58 0.62 0.68 0.72 0.72 0.74 0.84 0.89 0.82 0.81
0.19 0.37 0.57 0.53 0.31 0.24 0.19 0.20 0.31 0.44 0.61 0.79 0.84 0.91 0.93 0.68 0.46 0.45 0.44 0.47 0.41 0.31 0.26 0.35 0.54 0.53 0.60 0.62 0.60 0.61 0.62 0.65 0.61 0.62 0.62 0.69 0.75 0.73 0.68 0.66 0.68 0.69 0.73 0.74 0.79 0.84 0.87 0.89 0.91
0.25 0.38 0.44 0.37 0.22 0.19 0.21 0.24 0.31 0.44 0.61 0.78 1.05 1.15 1.11 0.90 0.75 0.64 0.53 0.64 0.53 0.39 0.29 0.35 0.55 0.63 0.62 0.61 0.60 0.60 0.60 0.60 0.59 0.59 0.60 0.64 0.70 0.72 0.73 0.75 0.77 0.71 0.75 0.79 0.79 0.81 0.80 0.86 0.97
0.21 0.25 0.27 0.24 0.19 0.17 0.20 0.24 0.31 0.48 0.63 0.87 1.15 1.30 1.19 1.06 0.90 0.77 0.73 0.79 0.83 0.69 0.56 0.48 0.53 0.61 0.63 0.69 0.70 0.64 0.63 0.62 0.60 0.62 0.64 0.63 0.65 0.68 0.69 0.81 0.84 0.79 0.80 0.83 0.86 0.84 0.85 0.90 1.02
0.10 0.15 0.17 0.14 0.14 0.14 0.18 0.22 0.34 0.56 0.74 0.95 1.14 1.29 1.39 1.08 0.90 0.99 1.18 1.33 1.42 1.29 1.09 0.82 0.63 0.69 0.66 0.72 0.74 0.71 0.59 0.58 0.62 0.67 0.67 0.70 0.77 0.83 0.92 0.91 0.88 0.91 0.99 1.03 1.06 1.02 0.97 1.08 1.18
0.07 0.10 0.11 0.07 0.07 0.14 0.16 0.21 0.30 0.41 0.61 0.85 1.03 1.09 1.01 0.96 1.12 1.40 1.76 1.79 1.62 1.64 1.46 1.31 1.06 0.81 0.87 0.85 0.76 0.86 0.77 0.76 0.87 1.03 1.02 1.09 1.40 1.36 1.46 1.20 1.12 1.22 1.41 1.46 1.50 1.49 1.41 1.36 1.32
0.04 0.06 0.04 0.02 0.02 0.06 0.12 0.18 0.29 0.44 0.85 1.43 1.42 1.09 0.88 1.06 1.32 1.56 1.87 2.08 1.68 1.66 1.48 1.47 1.40 1.11 1.02 0.98 1.21 1.52 1.34 1.34 1.40 1.63 1.52 1.81 1.93 1.81 1.35 1.42 1.58 1.71 2.06 2.18 2.20 2.24 2.03 1.75 1.62
0.02 0.02 0.02 0.01 0.02 0.02 0.05 0.13 0.23 0.47 0.95 1.64 1.80 1.35 1.17 1.27 1.65 1.68 1.92 2.13 2.04 1.86 1.73 1.45 1.57 1.43 1.39 1.54 1.62 1.77 1.85 1.84 1.80 1.89 1.93 2.17 1.99 1.71 1.62 1.93 2.28 2.46 2.63 2.79 2.83 2.75 2.30 2.26 2.42
0.01 0.01 0.01 0.01 0.01 0.02 0.09 0.18 0.28 0.36 0.79 1.14 1.12 1.01 1.17 1.39 1.73 1.95 2.02 2.25 2.29 2.15 2.03 1.90 1.88 1.88 1.86 1.90 1.82 1.71 1.55 1.57 1.69 1.85 1.88 2.09 2.19 2.21 2.19 2.34 2.46 2.67 3.01 3.37 3.30 3.25 3.02 3.04 2.87
0.01 0.01 0.01 0.02 0.03 0.05 0.11 0.15 0.27 0.42 0.54 0.67 0.64 0.83 1.27 1.55 1.94 2.28 2.64 2.86 2.91 2.84 2.68 2.67 2.73 2.52 2.29 2.22 1.89 1.55 1.45 1.36 1.43 1.55 1.65 1.71 2.03 2.29 2.34 2.20 2.22 2.22 2.44 2.85 3.36 3.31 3.48 3.47 3.15
0.01 0.01 0.02 0.04 0.04 0.05 0.10 0.15 0.30 0.51 0.52 0.62 0.78 1.02 1.42 1.87 2.25 2.50 3.25 3.65 3.89 3.82 3.64 3.44 3.48 3.02 2.65 2.40 2.02 1.76 1.51 1.51 1.43 1.35 1.38 1.59 1.82 2.10 2.07 2.04 2.22 2.28 2.22 2.38 2.80 2.99 3.33 3.33 2.99
0.03 0.06 0.07 0.08 0.05 0.06 0.12 0.29 0.45 0.57 0.75 0.79 0.97 1.19 1.53 2.12 2.59 3.04 3.58 4.32 4.76 4.92 4.53 3.94 3.66 3.32 3.02 2.74 2.25 1.87 1.69 1.44 1.43 1.43 1.36 1.43 1.56 1.79 1.79 1.87 1.87 1.95 1.90 1.98 2.16 2.42 2.71 2.69 2.55
0.07 0.14 0.22 0.13 0.08 0.09 0.14 0.53 0.71 0.60 0.88 1.21 1.17 1.44 1.84 2.37 2.84 3.51 4.20 5.03 5.56 5.72 5.13 4.40 3.70 3.71 3.53 3.21 2.55 2.06 1.77 1.62 1.53 1.46 1.34 1.26 1.29 1.29 1.40 1.44 1.42 1.44 1.33 1.47 1.77 1.87 2.11 2.35 2.44
0.06 0.12 0.18 0.19 0.13 0.11 0.20 0.61 0.79 0.59 0.75 1.04 1.29 1.54 1.96 2.33 2.68 3.32 3.97 4.77 5.37 5.89 5.69 5.05 4.85 4.60 3.93 3.18 2.57 2.15 1.85 1.71 1.53 1.44 1.35 1.29 1.21 1.16 1.23 1.31 1.40 1.17 1.14 1.21 1.15 1.51 1.72 1.97 2.10
0.06 0.08 0.12 0.24 0.18 0.18 0.27 0.47 0.75 0.78 0.96 1.16 1.31 1.45 1.73 1.93 2.27 2.78 3.30 3.74 4.33 4.83 4.73 4.67 4.77 4.30 3.68 3.04 2.53 2.22 1.95 1.66 1.47 1.37 1.39 1.31 1.25 1.22 1.33 1.18 1.20 1.07 1.21 1.36 1.46 1.70 1.64 1.60 1.70
0.05 0.06 0.10 0.17 0.18 0.24 0.37 0.50 0.72 0.88 1.11 1.26 1.29 1.26 1.33 1.55 1.86 2.16 2.54 2.89 3.09 3.25 3.36 3.67 3.89 3.60 3.10 2.67 2.17 1.95 1.86 1.68 1.49 1.36 1.26 1.31 1.25 1.37 1.46 1.21 1.45 1.30 1.26 1.34 1.38 1.50 1.50 1.36 1.33
0.05 0.07 0.13 0.16 0.16 0.21 0.36 0.65 0.82 0.90 0.93 1.00 1.11 1.06 1.09 1.29 1.39 1.48 1.70 2.03 2.12 2.34 2.65 3.03 3.27 3.11 2.58 2.33 2.11 1.96 1.87 1.74 1.68 1.54 1.46 1.31 1.28 1.33 1.24 1.45 1.29 1.32 1.41 1.45 1.51 1.60 1.59 1.42 1.35
0.06 0.07 0.09 0.12 0.13 0.22 0.38 0.90 1.01 0.90 0.81 0.71 0.82 0.87 0.84 0.92 1.02 1.02 1.10 1.27 1.58 2.05 2.21 2.26 2.52 2.72 2.46 2.32 2.23 2.12 2.01 1.82 1.85 1.75 1.59 1.29 1.19 1.23 1.26 1.27 1.28 1.46 1.28 1.50 1.68 1.62 1.67 1.64 1.49
0.05 0.06 0.05 0.05 0.09 0.33 0.46 0.91 1.03 0.91 0.89 0.71 0.67 0.66 0.56 0.54 0.70 0.84 0.85 0.91 1.11 1.43 1.72 1.98 2.22 2.40 2.34 2.21 2.00 1.84 1.65 1.54 1.54 1.56 1.57 1.45 1.33 1.17 1.17 1.18 1.33 1.48 1.29 1.59 1.33 1.36 1.59 1.70 1.54
0.02 0.02 0.04 0.06 0.12 0.31 0.44 0.78 1.00 0.83 0.97 0.73 0.46 0.33 0.29 0.29 0.40 0.57 0.68 0.77 0.79 0.99 1.38 1.81 2.16 2.40 2.29 2.00 1.83 1.82 1.71 1.66 1.59 1.52 1.69 1.56 1.48 1.28 1.12 1.19 1.31 1.37 1.29 1.37 1.40 1.64 1.56 1.51 1.49
0.01 0.03 0.09 0.19 0.32 0.64 0.63 0.65 0.93 0.71 0.54 0.39 0.28 0.20 0.21 0.23 0.27 0.36 0.43 0.53 0.67 0.81 1.06 1.38 1.72 1.97 1.99 1.84 1.75 1.80 1.82 1.78 1.64 1.45 1.44 1.35 1.36 1.31 1.23 1.30 1.35 1.30 1.24 1.29 1.32 1.45 1.48 1.55 1.61
0.02 0.04 0.18 0.40 0.67 0.86 0.51 0.66 1.02 0.59 0.41 0.26 0.21 0.19 0.19 0.17 0.22 0.32 0.40 0.43 0.53 0.62 0.79 1.03 1.29 1.44 1.60 1.68 1.71 1.69 1.80 1.80 1.61 1.43 1.37 1.38 1.24 1.16 1.19 1.29 1.43 1.37 1.36 1.34 1.43 1.42 1.37 1.46 1.51
0.02 0.03 0.07 0.15 0.28 0.44 0.50 1.12 0.98 0.42 0.27 0.23 0.20 0.20 0.18 0.18 0.20 0.30 0.41 0.43 0.44 0.48 0.64 0.79 0.97 1.17 1.37 1.49 1.55 1.57 1.52 1.42 1.41 1.48 1.39 1.34 1.31 1.25 1.20 1.27 1.28 1.31 1.34 1.34 1.60 1.40 1.29 1.33 1.32
0.03 0.02 0.03 0.05 0.08 0.27 0.61 0.80 0.52 0.25 0.22 0.24 0.22 0.21 0.20 0.24 0.31 0.36 0.46 0.48 0.38 0.39 0.49 0.56 0.75 0.93 1.07 1.28 1.38 1.30 1.32 1.23 1.24 1.29 1.28 1.24 1.34 1.35 1.29 1.20 1.18 1.24 1.34 1.43 1.52 1.42 1.41 1.45 1.30
0.03 0.02 0.03 0.03 0.06 0.19 0.45 0.70 0.72 0.44 0.33 0.28 0.25 0.24 0.21 0.27 0.41 0.45 0.42 0.44 0.37 0.36 0.43 0.51 0.66 0.77 0.87 1.04 1.12 1.04 1.23 1.23 1.31 1.27 1.19 1.14 1.14 1.17 1.22 1.20 1.14 1.19 1.27 1.38 1.48 1.51 1.61 1.69 1.54
0.04 0.03 0.03 0.03 0.04 0.10 0.30 0.48 0.51 0.46 0.40 0.29 0.23 0.26 0.32 0.31 0.43 0.44 0.40 0.42 0.39 0.38 0.42 0.48 0.63 0.73 0.79 0.92 0.96 1.02 1.09 1.12 1.17 1.19 1.20 1.18 1.15 1.13 1.17 1.21 1.23 1.25 1.29 1.39 1.45 1.41 1.62 1.76 1.79
0.05 0.06 0.06 0.05 0.05 0.06 0.12 0.24 0.26 0.31 0.38 0.31 0.30 0.37 0.39 0.28 0.29 0.35 0.40 0.46 0.35 0.36 0.40 0.45 0.53 0.59 0.65 0.81 0.95 0.99 1.09 1.10 1.08 1.12 1.29 1.31 1.28 1.27 1.29 1.32 1.40 1.37 1.35 1.42 1.42 1.34 1.41 1.60 1.80

GEFSSGP_prec_meanprecacc_216.txt.gz
Total_Precipitation_Accumulation
0.07 0.19 0.36 0.75 1.47 1.57 1.08 0.67 0.55 0.44 0.42 0.38 0.39 0.37 0.46 0.69 1.06 1.52 0.89 0.46 0.41 0.47 0.65 0.88 1.12 1.06 1.03 0.96 0.97 0.94 0.89 0.85 0.84 0.88 0.91 0.87 0.80 0.68 0.61 0.61 0.65 0.70 0.69 0.64 0.73 0.78 0.74 0.80 0.90
0.16 0.27 0.46 0.98 1.44 1.14 0.85 0.63 0.53 0.37 0.35 0.38 0.51 0.52 0.43 0.53 0.53 0.58 0.62 0.52 0.36 0.40 0.62 0.71 0.93 0.94 0.96 0.93 0.93 0.91 0.85 0.75 0.75 0.74 0.74 0.73 0.73 0.66 0.60 0.61 0.64 0.66 0.64 0.65 0.75 0.79 0.80 0.79 0.83
0.23 0.35 0.58 0.98 0.95 0.63 0.55 0.45 0.37 0.34 0.40 0.49 0.57 0.60 0.61 0.61 0.50 0.56 0.55 0.45 0.40 0.39 0.51 0.71 0.86 0.82 0.88 0.85 0.82 0.85 0.83 0.76 0.70 0.66 0.71 0.70 0.66 0.63 0.60 0.62 0.64 0.67 0.67 0.67 0.70 0.81 0.86 0.84 0.84
0.26 0.41 0.55 0.67 0.51 0.30 0.24 0.25 0.28 0.39 0.57 0.78 0.80 0.77 0.72 0.55 0.47 0.47 0.51 0.45 0.39 0.32 0.35 0.57 0.79 0.77 0.86 0.79 0.73 0.75 0.75 0.75 0.71 0.69 0.72 0.76 0.77 0.75 0.66 0.61 0.64 0.71 0.75 0.74 0.77 0.86 0.91 0.85 0.84
0.21 0.42 0.62 0.56 0.32 0.24 0.19 0.20 0.31 0.45 0.61 0.79 0.84 0.92 0.95 0.71 0.47 0.47 0.47 0.50 0.44 0.34 0.30 0.43 0.71 0.72 0.76 0.74 0.69 0.68 0.69 0.73 0.69 0.70 0.67 0.74 0.79 0.76 0.71 0.69 0.71 0.71 0.75 0.76 0.81 0.87 0.89 0.91 0.93
0.29 0.44 0.48 0.39 0.23 0.19 0.21 0.24 0.31 0.44 0.61 0.78 1.05 1.17 1.14 0.92 0.76 0.65 0.55 0.67 0.57 0.41 0.32 0.41 0.69 0.77 0.75 0.73 0.68 0.67 0.66 0.67 0.67 0.66 0.65 0.68 0.73 0.74 0.76 0.78 0.81 0.75 0.77 0.80 0.81 0.83 0.83 0.89 0.99
0.24 0.29 0.29 0.25 0.20 0.18 0.20 0.24 0.31 0.48 0.63 0.87 1.15 1.31 1.21 1.08 0.91 0.78 0.74 0.81 0.86 0.72 0.58 0.51 0.58 0.68 0.71 0.77 0.77 0.70 0.68 0.68 0.67 0.69 0.69 0.67 0.68 0.70 0.71 0.85 0.88 0.82 0.83 0.84 0.87 0.86 0.88 0.93 1.03
0.10 0.17 0.18 0.14 0.14 0.14 0.18 0.22 0.34 0.56 0.74 0.95 1.14 1.29 1.40 1.09 0.91 0.99 1.19 1.36 1.45 1.33 1.11 0.85 0.68 0.77 0.73 0.77 0.80 0.77 0.65 0.64 0.68 0.73 0.72 0.74 0.82 0.87 0.95 0.94 0.91 0.93 1.01 1.04 1.08 1.03 1.00 1.11 1.20
0.07 0.13 0.12 0.07 0.07 0.14 0.16 0.21 0.30 0.41 0.61 0.85 1.03 1.09 1.01 0.96 1.13 1.41 1.78 1.81 1.65 1.67 1.50 1.34 1.09 0.86 0.91 0.89 0.80 0.92 0.82 0.80 0.92 1.10 1.08 1.14 1.45 1.43 1.52 1.23 1.14 1.24 1.43 1.48 1.52 1.51 1.44 1.38 1.34
0.05 0.08 0.05 0.03 0.02 0.06 0.12 0.18 0.29 0.44 0.86 1.43 1.42 1.09 0.88 1.06 1.33 1.56 1.88 2.09 1.70 1.67 1.49 1.49 1.41 1.13 1.05 1.04 1.26 1.59 1.41 1.40 1.47 1.73 1.63 1.91 2.02 1.90 1.41 1.46 1.61 1.72 2.08 2.20 2.23 2.27 2.05 1.77 1.65
0.03 0.03 0.03 0.01 0.02 0.02 0.05 0.13 0.23 0.47 0.95 1.64 1.80 1.35 1.17 1.27 1.65 1.68 1.93 2.14 2.06 1.88 1.74 1.46 1.57 1.44 1.44 1.61 1.67 1.84 1.93 1.90 1.87 1.98 2.03 2.27 2.08 1.77 1.68 2.00 2.35 2.50 2.67 2.84 2.88 2.79 2.34 2.29 2.46
0.02 0.01 0.01 0.01 0.01 0.02 0.09 0.18 0.28 0.36 0.79 1.15 1.12 1.01 1.17 1.39 1.73 1.96 2.02 2.26 2.29 2.15 2.04 1.91 1.89 1.91 1.92 1.96 1.88 1.77 1.60 1.61 1.73 1.90 1.94 2.16 2.26 2.28 2.26 2.43 2.54 2.74 3.09 3.46 3.40 3.35 3.09 3.10 2.91
0.01 0.02 0.02 0.02 0.03 0.05 0.11 0.15 0.27 0.42 0.54 0.67 0.64 0.83 1.27 1.55 1.94 2.28 2.64 2.86 2.91 2.84 2.69 2.68 2.74 2.54 2.34 2.29 1.96 1.59 1.50 1.40 1.44 1.57 1.70 1.77 2.09 2.36 2.41 2.28 2.31 2.29 2.51 2.93 3.46 3.41 3.57 3.54 3.20
0.01 0.01 0.02 0.04 0.04 0.05 0.10 0.15 0.30 0.51 0.52 0.62 0.78 1.02 1.42 1.87 2.25 2.50 3.25 3.65 3.89 3.82 3.64 3.44 3.49 3.03 2.67 2.43 2.07 1.79 1.54 1.55 1.46 1.37 1.40 1.63 1.89 2.18 2.15 2.12 2.29 2.35 2.30 2.46 2.89 3.08 3.43 3.40 3.06
0.03 0.06 0.07 0.08 0.05 0.06 0.12 0.29 0.45 0.57 0.75 0.79 0.97 1.19 1.53 2.12 2.59 3.04 3.58 4.32 4.76 4.93 4.53 3.94 3.66 3.33 3.05 2.77 2.28 1.89 1.71 1.46 1.48 1.45 1.38 1.46 1.61 1.86 1.86 1.95 1.95 2.01 1.95 2.03 2.24 2.49 2.77 2.74 2.60
0.07 0.14 0.22 0.13 0.08 0.09 0.15 0.53 0.71 0.60 0.88 1.22 1.17 1.44 1.84 2.37 2.84 3.51 4.20 5.03 5.56 5.72 5.13 4.41 3.70 3.71 3.55 3.24 2.58 2.08 1.78 1.64 1.56 1.50 1.37 1.29 1.32 1.33 1.46 1.51 1.49 1.51 1.39 1.53 1.84 1.94 2.19 2.41 2.49
0.07 0.12 0.19 0.20 0.13 0.11 0.20 0.61 0.79 0.59 0.75 1.04 1.29 1.54 1.96 2.33 2.68 3.32 3.97 4.77 5.37 5.89 5.69 5.05 4.85 4.61 3.93 3.20 2.59 2.17 1.87 1.73 1.56 1.47 1.40 1.33 1.23 1.19 1.29 1.39 1.48 1.25 1.22 1.29 1.20 1.57 1.78 2.04 2.16
0.08 0.08 0.14 0.25 0.18 0.18 0.27 0.47 0.75 0.78 0.96 1.16 1.31 1.45 1.73 1.93 2.27 2.78 3.30 3.74 4.33 4.83 4.74 4.67 4.78 4.31 3.69 3.05 2.55 2.25 1.98 1.68 1.49 1.41 1.42 1.33 1.28 1.24 1.38 1.26 1.26 1.15 1.30 1.44 1.53 1.78 1.71 1.65 1.75
0.06 0.07 0.11 0.18 0.18 0.25 0.37 0.50 0.72 0.88 1.11 1.26 1.29 1.26 1.33 1.55 1.86 2.16 2.54 2.89 3.09 3.25 3.36 3.68 3.89 3.61 3.12 2.69 2.19 1.97 1.90 1.71 1.51 1.38 1.28 1.33 1.27 1.39 1.50 1.27 1.55 1.38 1.35 1.41 1.45 1.59 1.58 1.43 1.39
0.06 0.08 0.14 0.17 0.16 0.21 0.36 0.65 0.82 0.90 0.93 1.00 1.11 1.06 1.09 1.29 1.39 1.48 1.70 2.03 2.12 2.34 2.65 3.03 3.28 3.12 2.59 2.35 2.13 1.99 1.91 1.77 1.71 1.56 1.49 1.34 1.30 1.35 1.27 1.50 1.35 1.39 1.50 1.53 1.60 1.69 1.69 1.50 1.42
0.07 0.08 0.10 0.13 0.13 0.22 0.38 0.90 1.01 0.90 0.81 0.71 0.82 0.87 0.84 0.92 1.02 1.02 1.10 1.27 1.58 2.05 2.21 2.27 2.53 2.74 2.48 2.35 2.26 2.14 2.05 1.86 1.90 1.80 1.64 1.33 1.21 1.25 1.29 1.30 1.32 1.50 1.34 1.59 1.78 1.72 1.76 1.74 1.58
0.06 0.06 0.06 0.06 0.10 0.34 0.46 0.92 1.04 0.91 0.89 0.71 0.67 0.66 0.57 0.54 0.70 0.84 0.85 0.91 1.11 1.44 1.73 1.98 2.24 2.42 2.36 2.24 2.04 1.86 1.68 1.59 1.59 1.61 1.63 1.49 1.36 1.19 1.20 1.21 1.36 1.52 1.34 1.68 1.39 1.45 1.69 1.81 1.65
0.03 0.03 0.04 0.07 0.14 0.32 0.44 0.78 1.00 0.83 0.97 0.74 0.46 0.33 0.29 0.29 0.40 0.57 0.68 0.77 0.79 0.99 1.39 1.82 2.18 2.42 2.32 2.03 1.86 1.85 1.74 1.70 1.62 1.55 1.73 1.62 1.53 1.32 1.14 1.22 1.35 1.42 1.34 1.44 1.47 1.72 1.63 1.60 1.58
0.02 0.03 0.09 0.20 0.33 0.66 0.64 0.65 0.93 0.71 0.54 0.40 0.28 0.20 0.21 0.23 0.28 0.37 0.43 0.53 0.68 0.81 1.07 1.39 1.74 1.99 2.02 1.86 1.76 1.81 1.84 1.81 1.67 1.48 1.48 1.40 1.41 1.36 1.26 1.33 1.39 1.34 1.28 1.35 1.38 1.52 1.54 1.63 1.70
0.02 0.04 0.19 0.40 0.68 0.87 0.52 0.67 1.02 0.59 0.42 0.29 0.23 0.20 0.19 0.18 0.24 0.33 0.40 0.43 0.53 0.63 0.80 1.04 1.30 1.44 1.61 1.69 1.71 1.70 1.82 1.82 1.64 1.45 1.40 1.42 1.28 1.19 1.22 1.33 1.47 1.40 1.41 1.39 1.49 1.48 1.44 1.53 1.59
0.02 0.03 0.08 0.16 0.29 0.44 0.51 1.12 0.98 0.43 0.27 0.23 0.21 0.21 0.19 0.18 0.20 0.31 0.41 0.43 0.44 0.49 0.66 0.81 0.98 1.18 1.38 1.49 1.56 1.58 1.54 1.44 1.42 1.51 1.41 1.37 1.35 1.27 1.23 1.30 1.32 1.34 1.38 1.38 1.67 1.49 1.37 1.40 1.38
0.03 0.02 0.04 0.05 0.08 0.28 0.61 0.80 0.53 0.26 0.22 0.25 0.22 0.21 0.20 0.24 0.31 0.36 0.46 0.48 0.39 0.40 0.50 0.57 0.76 0.95 1.09 1.29 1.39 1.31 1.34 1.25 1.26 1.32 1.31 1.26 1.37 1.38 1.31 1.22 1.21 1.28 1.38 1.48 1.59 1.49 1.48 1.53 1.36
0.03 0.02 0.03 0.03 0.06 0.20 0.46 0.71 0.73 0.46 0.35 0.29 0.26 0.24 0.21 0.28 0.42 0.45 0.42 0.45 0.39 0.37 0.44 0.51 0.66 0.78 0.88 1.06 1.13 1.06 1.24 1.24 1.33 1.30 1.22 1.17 1.18 1.22 1.26 1.23 1.18 1.24 1.32 1.43 1.54 1.57 1.68 1.76 1.60
0.05 0.03 0.03 0.03 0.04 0.10 0.31 0.50 0.55 0.51 0.46 0.32 0.24 0.27 0.33 0.32 0.44 0.45 0.41 0.43 0.40 0.39 0.43 0.49 0.63 0.73 0.79 0.93 0.98 1.03 1.11 1.14 1.20 1.24 1.25 1.23 1.20 1.18 1.21 1.25 1.27 1.29 1.33 1.43 1.51 1.47 1.69 1.82 1.84
0.06 0.07 0.06 0.06 0.05 0.07 0.13 0.26 0.28 0.34 0.40 0.33 0.31 0.38 0.40 0.29 0.29 0.36 0.40 0.46 0.36 0.37 0.41 0.46 0.53 0.60 0.66 0.82 0.97 1.03 1.13 1.15 1.12 1.16 1.34 1.35 1.32 1.30 1.32 1.36 1.44 1.41 1.40 1.48 1.47 1.38 1.47 1.65 1.85

GEFSSGP_prec_meanprecacc_222.txt.gz
Total_Precipitation_Accumulation
0.09 0.24 0.50 0.85 1.56 1.67 1.14 0.70 0.56 0.44 0.42 0.39 0.39 0.38 0.47 0.70 1.08 1.57 0.97 0.53 0.47 0.62 0.78 0.99 1.21 1.12 1.09 1.03 1.03 0.99 0.92 0.88 0.87 0.91 0.94 0.90 0.84 0.72 0.64 0.64 0.68 0.72 0.70 0.65 0.74 0.79 0.74 0.81 0.92
0.20 0.39 0.61 1.08 1.55 1.22 0.89 0.65 0.53 0.37 0.35 0.39 0.51 0.52 0.43 0.53 0.55 0.62 0.68 0.57 0.43 0.55 0.75 0.78 1.00 1.00 1.03 1.00 0.99 0.97 0.89 0.78 0.78 0.77 0.77 0.75 0.76 0.69 0.62 0.62 0.66 0.68 0.65 0.67 0.76 0.80 0.81 0.80 0.85
0.31 0.48 0.73 1.13 1.05 0.67 0.57 0.46 0.37 0.35 0.41 0.50 0.59 0.61 0.61 0.63 0.52 0.59 0.59 0.47 0.45 0.51 0.63 0.79 0.91 0.87 0.92 0.88 0.87 0.89 0.87 0.80 0.73 0.69 0.73 0.72 0.69 0.66 0.62 0.63 0.65 0.68 0.69 0.69 0.73 0.83 0.87 0.85 0.85
0.36 0.55 0.66 0.77 0.56 0.31 0.25 0.26 0.28 0.39 0.57 0.79 0.80 0.78 0.73 0.57 0.48 0.49 0.54 0.47 0.42 0.39 0.43 0.65 0.85 0.81 0.89 0.82 0.77 0.79 0.79 0.79 0.73 0.71 0.73 0.78 0.79 0.78 0.68 0.61 0.64 0.71 0.76 0.76 0.79 0.89 0.92 0.85 0.85
0.30 0.51 0.73 0.62 0.34 0.25 0.19 0.20 0.31 0.45 0.62 0.80 0.85 0.92 0.96 0.73 0.49 0.48 0.49 0.52 0.45 0.36 0.35 0.49 0.78 0.76 0.79 0.77 0.74 0.72 0.73 0.77 0.71 0.72 0.69 0.76 0.81 0.78 0.73 0.71 0.72 0.71 0.76 0.77 0.82 0.89 0.92 0.93 0.95
0.38 0.53 0.55 0.42 0.24 0.19 0.21 0.24 0.32 0.44 0.62 0.78 1.06 1.18 1.16 0.95 0.78 0.67 0.56 0.68 0.57 0.43 0.35 0.44 0.73 0.81 0.79 0.77 0.73 0.70 0.69 0.70 0.69 0.68 0.66 0.71 0.76 0.77 0.78 0.80 0.82 0.75 0.77 0.81 0.82 0.84 0.84 0.90 1.00
0.31 0.37 0.33 0.26 0.20 0.18 0.20 0.24 0.32 0.48 0.63 0.87 1.16 1.32 1.22 1.12 0.93 0.80 0.75 0.83 0.88 0.73 0.60 0.53 0.62 0.72 0.75 0.81 0.80 0.72 0.70 0.70 0.69 0.72 0.72 0.69 0.71 0.73 0.74 0.86 0.88 0.82 0.83 0.85 0.88 0.87 0.89 0.95 1.05
0.17 0.22 0.19 0.15 0.14 0.15 0.18 0.22 0.34 0.57 0.74 0.95 1.15 1.29 1.41 1.11 0.92 1.01 1.21 1.37 1.47 1.34 1.13 0.86 0.70 0.82 0.76 0.80 0.83 0.81 0.68 0.67 0.71 0.78 0.76 0.77 0.85 0.89 0.97 0.95 0.92 0.94 1.02 1.05 1.08 1.04 1.01 1.13 1.22
0.12 0.18 0.14 0.07 0.07 0.14 0.17 0.21 0.30 0.41 0.61 0.85 1.03 1.09 1.01 0.97 1.13 1.41 1.79 1.82 1.66 1.69 1.52 1.35 1.14 0.92 0.94 0.92 0.82 0.94 0.85 0.84 0.97 1.15 1.13 1.18 1.48 1.45 1.53 1.24 1.17 1.26 1.44 1.50 1.54 1.52 1.45 1.40 1.36
0.08 0.11 0.07 0.03 0.02 0.06 0.12 0.19 0.29 0.44 0.86 1.43 1.42 1.09 0.88 1.07 1.33 1.56 1.88 2.10 1.70 1.68 1.50 1.50 1.44 1.16 1.10 1.07 1.28 1.62 1.43 1.42 1.49 1.76 1.65 1.92 2.03 1.91 1.41 1.47 1.64 1.75 2.09 2.22 2.26 2.29 2.07 1.79 1.66
0.06 0.04 0.03 0.02 0.02 0.02 0.05 0.13 0.23 0.48 0.95 1.64 1.80 1.35 1.17 1.28 1.65 1.68 1.93 2.14 2.06 1.88 1.74 1.47 1.58 1.46 1.48 1.65 1.72 1.87 1.95 1.91 1.88 2.01 2.04 2.28 2.09 1.78 1.69 2.01 2.37 2.52 2.68 2.86 2.91 2.82 2.36 2.31 2.49
0.04 0.03 0.02 0.01 0.02 0.02 0.10 0.18 0.28 0.37 0.80 1.15 1.12 1.01 1.18 1.39 1.73 1.96 2.02 2.26 2.29 2.15 2.04 1.92 1.90 1.92 1.94 1.98 1.92 1.79 1.62 1.63 1.76 1.94 1.97 2.18 2.28 2.29 2.27 2.44 2.55 2.76 3.10 3.48 3.42 3.36 3.11 3.11 2.93
0.02 0.05 0.05 0.03 0.04 0.05 0.11 0.15 0.27 0.43 0.55 0.67 0.64 0.84 1.27 1.55 1.94 2.28 2.64 2.86 2.91 2.84 2.69 2.68 2.74 2.55 2.35 2.30 1.97 1.60 1.51 1.41 1.46 1.60 1.75 1.79 2.11 2.39 2.43 2.29 2.32 2.30 2.52 2.94 3.48 3.44 3.59 3.56 3.21
0.04 0.05 0.05 0.04 0.04 0.06 0.10 0.15 0.30 0.51 0.52 0.63 0.78 1.02 1.42 1.87 2.25 2.50 3.25 3.65 3.89 3.82 3.64 3.44 3.49 3.03 2.68 2.44 2.08 1.81 1.55 1.56 1.48 1.39 1.44 1.66 1.91 2.19 2.17 2.13 2.31 2.37 2.31 2.47 2.91 3.10 3.44 3.42 3.07
0.09 0.10 0.09 0.08 0.06 0.07 0.12 0.29 0.46 0.57 0.76 0.80 0.98 1.19 1.53 2.12 2.59 3.05 3.58 4.32 4.76 4.93 4.53 3.94 3.66 3.33 3.06 2.78 2.29 1.90 1.72 1.49 1.52 1.50 1.42 1.49 1.63 1.87 1.88 1.97 1.98 2.05 1.98 2.06 2.26 2.50 2.78 2.75 2.61
0.12 0.19 0.26 0.14 0.09 0.09 0.15 0.54 0.71 0.60 0.89 1.22 1.17 1.44 1.84 2.37 2.84 3.51 4.20 5.03 5.56 5.72 5.13 4.41 3.70 3.71 3.56 3.25 2.58 2.10 1.81 1.66 1.59 1.53 1.40 1.31 1.35 1.35 1.48 1.53 1.53 1.54 1.42 1.55 1.87 1.96 2.20 2.42 2.50
0.09 0.15 0.22 0.22 0.14 0.12 0.20 0.62 0.79 0.60 0.76 1.05 1.29 1.54 1.96 2.33 2.68 3.32 3.97 4.78 5.38 5.89 5.69 5.05 4.85 4.61 3.94 3.20 2.59 2.18 1.89 1.76 1.59 1.51 1.44 1.35 1.25 1.21 1.31 1.42 1.50 1.27 1.25 1.31 1.23 1.59 1.80 2.05 2.18
0.10 0.10 0.16 0.27 0.20 0.20 0.28 0.48 0.75 0.79 0.96 1.17 1.31 1.46 1.74 1.93 2.27 2.78 3.30 3.74 4.34 4.83 4.74 4.68 4.78 4.31 3.69 3.06 2.56 2.26 2.00 1.71 1.53 1.48 1.45 1.35 1.29 1.27 1.40 1.28 1.29 1.17 1.33 1.48 1.55 1.80 1.74 1.68 1.78
0.08 0.09 0.13 0.21 0.20 0.26 0.39 0.51 0.73 0.89 1.11 1.27 1.30 1.27 1.34 1.55 1.86 2.16 2.54 2.89 3.10 3.25 3.36 3.68 3.90 3.61 3.12 2.70 2.19 1.99 1.93 1.74 1.54 1.41 1.30 1.35 1.28 1.40 1.51 1.29 1.57 1.41 1.38 1.45 1.48 1.61 1.61 1.46 1.42
0.07 0.09 0.15 0.20 0.17 0.23 0.38 0.66 0.83 0.91 0.93 1.01 1.11 1.07 1.09 1.30 1.40 1.49 1.71 2.04 2.13 2.34 2.66 3.03 3.28 3.12 2.59 2.36 2.14 2.00 1.93 1.80 1.74 1.59 1.52 1.35 1.31 1.36 1.28 1.50 1.36 1.40 1.52 1.56 1.63 1.72 1.73 1.54 1.47
0.07 0.08 0.11 0.15 0.15 0.23 0.39 0.91 1.02 0.90 0.81 0.71 0.83 0.88 0.86 0.94 1.05 1.04 1.12 1.29 1.59 2.06 2.21 2.27 2.54 2.74 2.49 2.36 2.27 2.16 2.07 1.88 1.92 1.83 1.66 1.34 1.22 1.25 1.30 1.31 1.33 1.52 1.35 1.61 1.80 1.74 1.80 1.78 1.62
0.06 0.07 0.06 0.08 0.11 0.35 0.47 0.93 1.05 0.92 0.90 0.72 0.69 0.68 0.58 0.56 0.73 0.87 0.89 0.95 1.14 1.47 1.75 2.00 2.26 2.44 2.38 2.26 2.05 1.87 1.69 1.60 1.60 1.63 1.64 1.50 1.37 1.21 1.21 1.21 1.37 1.53 1.36 1.70 1.41 1.46 1.70 1.84 1.68
0.03 0.03 0.05 0.08 0.15 0.33 0.45 0.79 1.01 0.84 0.98 0.74 0.47 0.35 0.31 0.32 0.43 0.60 0.71 0.80 0.84 1.04 1.44 1.86 2.21 2.44 2.33 2.04 1.87 1.86 1.75 1.70 1.63 1.56 1.74 1.62 1.54 1.34 1.16 1.23 1.37 1.43 1.35 1.46 1.49 1.73 1.64 1.61 1.60
0.02 0.04 0.12 0.21 0.34 0.66 0.65 0.66 0.94 0.72 0.56 0.42 0.31 0.23 0.24 0.27 0.32 0.41 0.46 0.56 0.70 0.85 1.11 1.45 1.78 2.02 2.04 1.88 1.78 1.82 1.85 1.82 1.68 1.49 1.49 1.41 1.42 1.37 1.28 1.34 1.40 1.35 1.30 1.37 1.40 1.53 1.55 1.64 1.72
0.02 0.04 0.20 0.42 0.69 0.87 0.52 0.68 1.03 0.61 0.44 0.32 0.26 0.24 0.23 0.21 0.28 0.40 0.44 0.46 0.54 0.64 0.81 1.06 1.33 1.49 1.69 1.79 1.78 1.73 1.83 1.83 1.64 1.46 1.41 1.43 1.31 1.24 1.25 1.35 1.49 1.42 1.43 1.41 1.50 1.51 1.46 1.54 1.61
0.03 0.04 0.09 0.17 0.29 0.45 0.51 1.13 0.99 0.44 0.29 0.25 0.22 0.23 0.20 0.20 0.23 0.37 0.47 0.46 0.46 0.50 0.67 0.81 1.00 1.22 1.45 1.62 1.67 1.65 1.58 1.46 1.45 1.54 1.44 1.39 1.37 1.32 1.24 1.33 1.34 1.36 1.41 1.40 1.69 1.52 1.41 1.43 1.41
0.03 0.04 0.06 0.06 0.09 0.29 0.62 0.81 0.54 0.27 0.25 0.28 0.25 0.26 0.24 0.27 0.33 0.40 0.50 0.52 0.41 0.42 0.52 0.58 0.78 0.96 1.11 1.33 1.45 1.39 1.42 1.33 1.32 1.37 1.35 1.29 1.40 1.41 1.33 1.25 1.24 1.30 1.40 1.51 1.62 1.52 1.51 1.55 1.39
0.03 0.03 0.04 0.04 0.06 0.20 0.47 0.72 0.74 0.47 0.36 0.32 0.31 0.33 0.31 0.35 0.46 0.49 0.47 0.50 0.43 0.41 0.48 0.57 0.71 0.82 0.90 1.08 1.15 1.08 1.28 1.29 1.40 1.37 1.28 1.21 1.21 1.25 1.29 1.28 1.22 1.28 1.35 1.47 1.58 1.60 1.72 1.79 1.63
0.05 0.04 0.03 0.04 0.05 0.10 0.32 0.51 0.56 0.52 0.47 0.35 0.32 0.37 0.42 0.41 0.52 0.51 0.46 0.49 0.45 0.45 0.50 0.56 0.69 0.77 0.83 0.96 1.00 1.06 1.15 1.19 1.25 1.30 1.31 1.28 1.22 1.21 1.25 1.29 1.31 1.32 1.36 1.47 1.55 1.50 1.73 1.86 1.88
0.07 0.08 0.08 0.07 0.05 0.07 0.14 0.27 0.29 0.35 0.41 0.35 0.34 0.42 0.47 0.35 0.37 0.44 0.46 0.52 0.42 0.43 0.48 0.52 0.59 0.65 0.70 0.86 1.01 1.06 1.17 1.19 1.17 1.22 1.41 1.41 1.36 1.35 1.37 1.41 1.49 1.46 1.44 1.51 1.51 1.42 1.51 1.70 1.89